When you browse on this site, cookies collect data to enhance your experience and personalize the content and advertising you see.
Visit our Privacy Policy to learn more. By continuing to use the site, you agree to this use of cookies and data.
  • In Hungary
  • List of Countries
  • For 7 days
  • Water Temperature
  • Satellite Maps
  • Weather Map
  • News
  • Weather Widgets
  • user-avatar
    Login

    Hourly Weather Kaihua

    Today, 22 February, Friday

    Time Temperature Precipitation Wind Pressure Humidity
    00:00 +16°C° 0 mm 1 mps 649 mmHg 78%
    01:00 +15°C° 0 mm 1 mps 649 mmHg 80%
    02:00 +15°C° 0 mm 1 mps 649 mmHg 83%
    03:00 +14°C° 0 mm 1 mps 649 mmHg 86%
    04:00 +14°C° 0 mm 1 mps 649 mmHg 88%
    05:00 +14°C° 0 mm 1 mps 649 mmHg 90%
    06:00 +14°C° 0 mm 1 mps 649 mmHg 92%
    07:00 +15°C° 0 mm 2 mps 650 mmHg 95%
    08:00 +16°C° 0 mm 3 mps 650 mmHg 85%
    09:00 +18°C° 0 mm 4 mps 650 mmHg 74%
    10:00 +20°C° 0 mm 4 mps 651 mmHg 63%
    11:00 +21°C° 0 mm 5 mps 650 mmHg 58%
    12:00 +22°C° 0 mm 5 mps 650 mmHg 52%
    13:00 +25°C° 0 mm 5 mps 649 mmHg 46%
    14:00 +23°C° 0 mm 5 mps 649 mmHg 46%
    15:00 +23°C° 0 mm 5 mps 648 mmHg 47%
    16:00 +23°C° 0 mm 5 mps 648 mmHg 47%
    17:00 +21°C° 0 mm 5 mps 647 mmHg 59%
    18:00 +19°C° 0 mm 4 mps 647 mmHg 71%
    19:00 +17°C° 0 mm 3 mps 647 mmHg 83%
    20:00 +17°C° 0 mm 3 mps 647 mmHg 85%
    21:00 +16°C° 0 mm 3 mps 647 mmHg 88%
    22:00 +16°C° 0 mm 3 mps 648 mmHg 91%
    23:00 +14°C° 0 mm 3 mps 648 mmHg 90%

    Tomorrow, 23 February, Saturday

    Time Temperature Precipitation Wind Pressure Humidity
    00:00 +14°C° 0 mm 3 mps 648 mmHg 89%
    01:00 +14°C° 0 mm 3 mps 648 mmHg 88%
    02:00 +14°C° 0 mm 3 mps 647 mmHg 89%
    03:00 +14°C° 0 mm 3 mps 647 mmHg 90%
    04:00 +15°C° 0 mm 2 mps 646 mmHg 91%
    05:00 +15°C° 0 mm 2 mps 646 mmHg 92%
    06:00 +14°C° 0 mm 2 mps 647 mmHg 93%
    07:00 +14°C° 0 mm 2 mps 647 mmHg 94%
    08:00 +16°C° 0 mm 3 mps 647 mmHg 84%
    09:00 +18°C° 0 mm 3 mps 648 mmHg 74%
    10:00 +19°C° 0 mm 4 mps 649 mmHg 64%
    11:00 +21°C° 0 mm 4 mps 649 mmHg 56%
    12:00 +23°C° 0 mm 4 mps 648 mmHg 48%
    13:00 +25°C° 0 mm 4 mps 648 mmHg 40%
    14:00 +26°C° 0 mm 5 mps 648 mmHg 38%
    15:00 +26°C° 0 mm 5 mps 647 mmHg 36%
    16:00 +26°C° 0 mm 5 mps 647 mmHg 35%
    17:00 +23°C° 0 mm 4 mps 647 mmHg 46%
    18:00 +20°C° 0 mm 3 mps 647 mmHg 58%
    19:00 +18°C° 0 mm 3 mps 646 mmHg 70%
    20:00 +17°C° 0 mm 3 mps 647 mmHg 77%
    21:00 +17°C° 0 mm 3 mps 647 mmHg 85%
    22:00 +16°C° 0 mm 3 mps 647 mmHg 93%
    23:00 +16°C° 0 mm 3 mps 647 mmHg 92%

    Day after tomorrow, 24 February, Sunday

    Time Temperature Precipitation Wind Pressure Humidity
    00:00 +16°C° 0 mm 2 mps 647 mmHg 92%
    01:00 +15°C° 0 mm 2 mps 647 mmHg 92%
    02:00 +15°C° 0 mm 2 mps 647 mmHg 93%
    03:00 +15°C° 0 mm 2 mps 646 mmHg 94%
    04:00 +15°C° 0 mm 2 mps 646 mmHg 95%
    05:00 +15°C° 0 mm 2 mps 646 mmHg 95%
    06:00 +15°C° 0 mm 2 mps 647 mmHg 95%
    07:00 +15°C° 0 mm 2 mps 647 mmHg 95%
    08:00 +17°C° 0 mm 2 mps 648 mmHg 81%
    09:00 +19°C° 0 mm 3 mps 649 mmHg 67%
    10:00 +22°C° 0 mm 4 mps 650 mmHg 53%
    11:00 +23°C° 0 mm 4 mps 650 mmHg 44%
    12:00 +26°C° 0 mm 5 mps 649 mmHg 36%
    13:00 +27°C° 0 mm 6 mps 649 mmHg 27%
    14:00 +28°C° 0 mm 6 mps 648 mmHg 27%
    15:00 +28°C° 0 mm 6 mps 648 mmHg 27%
    16:00 +28°C° 0 mm 6 mps 647 mmHg 26%
    17:00 +25°C° 0 mm 5 mps 647 mmHg 39%
    18:00 +22°C° 0 mm 4 mps 647 mmHg 52%
    19:00 +19°C° 0 mm 3 mps 647 mmHg 65%
    20:00 +18°C° 0 mm 3 mps 647 mmHg 74%
    21:00 +18°C° 0 mm 3 mps 647 mmHg 83%
    22:00 +17°C° 0 mm 3 mps 648 mmHg 92%
    23:00 +17°C° 0 mm 3 mps 648 mmHg 91%

    25 February, Monday

    Time Temperature Precipitation Wind Pressure Humidity
    00:00 +17°C° 0 mm 3 mps 648 mmHg 91%
    01:00 +17°C° 0 mm 3 mps 648 mmHg 90%
    02:00 +17°C° 0 mm 2 mps 647 mmHg 91%
    03:00 +16°C° 0 mm 2 mps 647 mmHg 91%
    04:00 +16°C° 0 mm 2 mps 647 mmHg 92%
    05:00 +16°C° 0 mm 2 mps 647 mmHg 93%
    06:00 +16°C° 0 mm 2 mps 647 mmHg 94%
    07:00 +15°C° 0 mm 2 mps 648 mmHg 95%
    08:00 +18°C° 0 mm 2 mps 649 mmHg 82%
    09:00 +20°C° 0 mm 3 mps 650 mmHg 69%
    10:00 +22°C° 0 mm 4 mps 651 mmHg 56%
    11:00 +25°C° 0 mm 5 mps 650 mmHg 48%
    12:00 +26°C° 0 mm 5 mps 650 mmHg 39%
    13:00 +28°C° 0 mm 6 mps 649 mmHg 31%
    14:00 +28°C° 0 mm 6 mps 649 mmHg 30%
    15:00 +28°C° 0 mm 6 mps 648 mmHg 29%
    16:00 +28°C° 0 mm 6 mps 648 mmHg 29%
    17:00 +25°C° 0 mm 5 mps 647 mmHg 42%
    18:00 +22°C° 0 mm 4 mps 647 mmHg 56%
    19:00 +19°C° 0 mm 3 mps 647 mmHg 69%
    20:00 +19°C° 0 mm 3 mps 648 mmHg 77%
    21:00 +18°C° 0 mm 3 mps 648 mmHg 84%
    22:00 +17°C° 0 mm 2 mps 648 mmHg 92%
    23:00 +17°C° 0 mm 2 mps 648 mmHg 92%

    26 February, Tuesday

    Time Temperature Precipitation Wind Pressure Humidity
    00:00 +17°C° 0 mm 2 mps 648 mmHg 93%
    01:00 +17°C° 0 mm 2 mps 648 mmHg 93%
    02:00 +17°C° 0 mm 2 mps 648 mmHg 92%
    03:00 +17°C° 0 mm 2 mps 647 mmHg 91%
    04:00 +17°C° 0 mm 2 mps 647 mmHg 90%
    05:00 +17°C° 0.1 mm 2 mps 648 mmHg 92%
    06:00 +16°C° 0.1 mm 2 mps 648 mmHg 93%
    07:00 +16°C° 0.1 mm 2 mps 648 mmHg 95%
    08:00 +18°C° 0.3 mm 3 mps 649 mmHg 82%
    09:00 +20°C° 0.3 mm 3 mps 650 mmHg 69%
    10:00 +23°C° 0.3 mm 4 mps 651 mmHg 56%
    11:00 +25°C° 0.1 mm 5 mps 651 mmHg 49%
    12:00 +26°C° 0.1 mm 6 mps 650 mmHg 42%
    13:00 +28°C° 0.1 mm 6 mps 650 mmHg 35%
    14:00 +28°C° 0 mm 6 mps 649 mmHg 34%
    15:00 +28°C° 0 mm 6 mps 649 mmHg 32%
    16:00 +28°C° 0 mm 6 mps 648 mmHg 31%
    17:00 +25°C° 0 mm 5 mps 648 mmHg 41%
    18:00 +22°C° 0 mm 4 mps 648 mmHg 51%
    19:00 +20°C° 0 mm 2 mps 648 mmHg 61%
    20:00 +19°C° 0.2 mm 2 mps 648 mmHg 68%
    21:00 +18°C° 0.2 mm 2 mps 648 mmHg 75%
    22:00 +17°C° 0.2 mm 2 mps 649 mmHg 82%
    23:00 +17°C° 0.4 mm 2 mps 648 mmHg 85%

    27 February, Wednesday

    Time Temperature Precipitation Wind Pressure Humidity
    00:00 +17°C° 0.4 mm 2 mps 648 mmHg 88%
    01:00 +16°C° 0.4 mm 2 mps 648 mmHg 90%
    02:00 +16°C° 0.2 mm 2 mps 648 mmHg 91%
    03:00 +16°C° 0.2 mm 2 mps 647 mmHg 92%
    04:00 +16°C° 0.2 mm 1 mps 647 mmHg 92%
    05:00 +16°C° 0.1 mm 2 mps 647 mmHg 92%
    06:00 +16°C° 0.1 mm 2 mps 648 mmHg 92%
    07:00 +16°C° 0.1 mm 2 mps 648 mmHg 92%
    08:00 +18°C° 0 mm 2 mps 649 mmHg 81%
    09:00 +20°C° 0 mm 3 mps 650 mmHg 69%
    10:00 +22°C° 0 mm 4 mps 650 mmHg 58%
    11:00 +25°C° 0 mm 4 mps 650 mmHg 49%
    12:00 +27°C° 0 mm 5 mps 650 mmHg 41%
    13:00 +28°C° 0 mm 6 mps 649 mmHg 32%
    14:00 +28°C° 0 mm 6 mps 649 mmHg 31%
    15:00 +28°C° 0 mm 6 mps 648 mmHg 31%
    16:00 +28°C° 0 mm 6 mps 648 mmHg 30%
    17:00 +26°C° 0 mm 5 mps 648 mmHg 38%
    18:00 +23°C° 0 mm 4 mps 647 mmHg 46%
    19:00 +20°C° 0 mm 2 mps 647 mmHg 55%
    20:00 +20°C° 0 mm 2 mps 647 mmHg 61%
    21:00 +19°C° 0 mm 2 mps 647 mmHg 67%
    22:00 +18°C° 0 mm 2 mps 648 mmHg 73%
    23:00 +18°C° 0.1 mm 2 mps 647 mmHg 77%
    Show more